Location: Ciserano
(45.5833°N, 9.6000°E)
Time: 16:37:14
(UTC+00:00)

FALCON 9 DEB - Pass Details

Date: 15 April 2021
Orbit: 369 x 385 km, 53.0° (Epoch: 10 May)

Event Time Altitude Azimuth Distance (km) Brightness Sun altitude
Exits shadow 02:12:29 19° 344° (NNW) 979 5.2 -22.7°
Maximum altitude 02:13:18 21° 7° (N) 918 5.3 -22.6°
Drops below altitude 10° 02:15:44 10° 59° (ENE) 1,388 6.8 -22.2°
Sets 02:18:07 0° 76° (ENE) 2,243 7.8 -21.9°
